GW4413 Weather Reports


Display with metric or nautical units.
time (UTC)temp
F
wind
direction
speed
MPH
gust
MPH
rain 1hr
in
rain 24hr
in
rain mn
in
humidity
%
barometer
mb
20260506024014 57 17 0.0 0.0 0.00 0.00 0.00 79 1015.4
20260506023505 57 17 0.0 1.0 0.00 0.00 0.00 78 1015.3
20260506023026 57 17 0.0 1.0 0.00 0.00 0.00 78 1015.4
20260506022508 57 17 0.0 0.0 0.00 0.00 0.00 78 1015.4
20260506022006 57 17 0.0 0.0 0.00 0.00 0.00 78 1015.4
20260506021525 57 17 0.0 0.0 0.00 0.00 0.00 78 1015.4
20260506021011 57 17 0.0 0.0 0.00 0.00 0.00 78 1015.4
20260506020025 58 17 0.0 1.0 0.00 0.00 0.00 77 1015.4
20260506015508 58 17 0.0 1.0 0.00 0.00 0.00 77 1015.4
20260506015007 58 17 0.0 1.0 0.00 0.00 0.00 77 1015.4
20260506014526 58 17 0.0 1.0 0.00 0.00 0.00 77 1015.5
20260506014006 58 17 0.0 1.0 0.00 0.00 0.00 77 1015.5
20260506013503 58 17 0.0 1.0 0.00 0.00 0.00 77 1015.5
20260506013027 58 17 0.0 1.0 0.00 0.00 0.00 77 1015.5
20260506012508 58 17 0.0 1.0 0.00 0.00 0.00 76 1015.5
20260506012013 58 17 0.0 1.0 0.00 0.00 0.00 76 1015.5
20260506011539 58 17 0.0 2.0 0.00 0.00 0.00 76 1015.4
20260506011010 58 17 0.0 2.0 0.00 0.00 0.00 76 1015.5
20260506010504 58 17 0.0 1.0 0.00 0.00 0.00 76 1015.6
20260506010024 59 313 0.0 1.0 0.00 0.00 0.00 76 1015.5
20260506005506 59 313 0.0 1.0 0.00 0.00 0.00 76 1015.5
20260506005007 59 313 0.0 1.0 0.00 0.00 0.00 75 1015.5
20260506004536 59 313 0.0 1.0 0.00 0.00 0.00 76 1015.5
20260506004007 59 65 0.0 1.0 0.00 0.00 0.00 76 1015.6
20260506003507 59 65 0.0 1.0 0.00 0.00 0.00 76 1015.6
20260506003029 59 65 0.0 1.0 0.00 0.00 0.00 76 1015.6
20260506002004 59 65 0.0 1.0 0.00 0.00 0.00 77 1015.6
20260506001525 59 65 0.0 1.0 0.00 0.00 0.00 78 1015.6
20260506001010 59 65 0.0 3.0 0.00 0.00 0.00 77 1015.6
20260506000512 59 65 0.0 3.0 0.00 0.00 0.00 77 1015.7
20260506000025 59 54 0.0 2.0 0.00 0.00 0.00 77 1015.7
20260505235507 59 54 0.0 1.0 0.00 0.00 0.00 77 1015.7
20260505235007 59 54 0.0 2.0 0.00 0.00 0.00 78 1015.8
20260505234529 59 54 0.0 2.0 0.00 0.00 0.00 77 1015.8
20260505234014 59 50 0.0 2.0 0.00 0.00 0.00 77 1015.9
20260505233506 59 53 0.0 3.0 0.00 0.00 0.00 78 1015.9
20260505233031 59 53 0.0 3.0 0.00 0.00 0.00 77 1015.9
20260505232008 59 50 1.0 2.0 0.00 0.00 0.00 78 1016.0
20260505231536 59 31 0.0 2.0 0.00 0.00 0.00 77 1016.0
20260505231006 59 11 0.0 2.0 0.00 0.00 0.00 79 1016.0
20260505230504 59 57 0.0 2.0 0.00 0.00 0.00 78 1016.1
20260505230028 59 62 0.0 0.0 0.00 0.00 0.00 78 1016.1
20260505225512 59 119 0.0 2.0 0.00 0.00 0.00 78 1016.2
20260505225011 58 183 0.0 2.0 0.00 0.00 0.00 78 1016.2
20260505224524 58 352 0.0 3.0 0.00 0.00 0.00 78 1016.2
20260505224010 59 64 1.0 3.0 0.00 0.00 0.00 78 1016.2
20260505223511 59 63 0.0 2.0 0.00 0.00 0.00 79 1016.2
20260505223024 58 63 0.0 2.0 0.00 0.00 0.00 78 1016.2
20260505222511 58 63 0.0 3.0 0.00 0.00 0.00 79 1016.1
20260505222016 58 63 0.0 3.0 0.00 0.00 0.00 78 1016.2
20260505221523 58 63 0.0 3.0 0.00 0.00 0.00 79 1016.2
20260505220044 58 88 0.0 2.0 0.00 0.00 0.00 80 1016.4
20260505215512 58 88 0.0 3.0 0.00 0.00 0.00 81 1016.4
20260505215012 58 61 0.0 3.0 0.00 0.00 0.00 80 1016.5
20260505214531 58 61 1.0 3.0 0.00 0.00 0.00 80 1016.6
20260505214010 58 72 0.0 3.0 0.00 0.00 0.00 80 1016.6
20260505213511 58 58 0.0 2.0 0.00 0.00 0.00 80 1016.6
20260505213028 58 58 0.0 2.0 0.00 0.00 0.00 80 1016.6
20260505212509 58 306 0.0 2.0 0.00 0.00 0.00 81 1016.6
20260505212014 58 306 0.0 2.0 0.00 0.00 0.00 82 1016.6
20260505211529 57 305 0.0 2.0 0.00 0.00 0.00 81 1016.6
20260505210511 57 305 0.0 2.0 0.00 0.00 0.00 82 1016.6
20260505210025 57 305 0.0 2.0 0.00 0.00 0.00 82 1016.6
20260505205513 57 305 0.0 2.0 0.00 0.00 0.00 83 1016.6
20260505204008 57 305 0.0 1.0 0.00 0.00 0.00 84 1016.7
20260505203511 56 305 0.0 1.0 0.00 0.00 0.00 84 1016.7
20260505203026 56 305 0.0 1.0 0.00 0.00 0.00 84 1016.7
20260505202510 56 305 0.0 2.0 0.00 0.00 0.00 85 1016.7
20260505202012 56 305 0.0 2.0 0.00 0.00 0.00 85 1016.7
20260505201526 56 305 0.0 1.0 0.00 0.00 0.00 85 1016.7
20260505201009 55 305 0.0 2.0 0.00 0.00 0.00 85 1016.7
20260505200512 55 305 0.0 2.0 0.00 0.00 0.00 85 1016.7
20260505200026 55 305 0.0 1.0 0.00 0.00 0.00 85 1016.7
20260505194517 56 305 0.0 1.0 0.00 0.00 0.00 84 1016.8
20260505194003 56 305 0.0 1.0 0.00 0.00 0.00 84 1016.8
20260505193508 56 305 0.0 1.0 0.00 0.00 0.00 84 1016.9
20260505192505 56 305 0.0 1.0 0.00 0.00 0.00 84 1016.8
20260505191510 56 305 0.0 1.0 0.00 0.00 0.00 84 1016.6
20260505190509 56 305 0.0 1.0 0.00 0.00 0.00 84 1016.6
20260505190009 56 305 0.0 1.0 0.00 0.00 0.00 84 1016.6
20260505185007 56 305 0.0 1.0 0.00 0.00 0.00 84 1016.7
20260505184508 56 305 0.0 1.0 0.00 0.00 0.00 84 1016.7
20260505184002 55 305 0.0 0.0 0.00 0.00 0.00 85 1016.7
20260505183508 55 305 0.0 0.0 0.00 0.00 0.00 85 1016.7
20260505182503 55 305 0.0 1.0 0.00 0.00 0.00 85 1016.6
20260505182008 55 305 0.0 2.0 0.00 0.00 0.00 85 1016.6
20260505181508 55 305 0.0 2.0 0.00 0.00 0.00 85 1016.6
20260505181005 55 305 0.0 1.0 0.00 0.00 0.00 86 1016.5
20260505180506 55 305 0.0 0.0 0.00 0.00 0.00 86 1016.5
20260505180010 55 305 0.0 0.0 0.00 0.00 0.00 86 1016.5
20260505175004 55 305 0.0 1.0 0.00 0.00 0.00 86 1016.4
20260505174507 55 305 0.0 1.0 0.00 0.00 0.00 86 1016.4
20260505174009 55 305 0.0 1.0 0.00 0.00 0.00 87 1016.4
20260505173506 54 305 0.0 1.0 0.00 0.00 0.00 86 1016.4
20260505172512 54 305 0.0 2.0 0.00 0.00 0.00 87 1016.3
20260505172004 54 305 0.0 2.0 0.00 0.00 0.00 87 1016.3
20260505171008 54 305 0.0 0.0 0.00 0.00 0.00 88 1016.3
20260505170010 54 305 0.0 0.0 0.00 0.00 0.00 88 1016.3
20260505165509 54 305 0.0 0.0 0.00 0.00 0.00 88 1016.3
20260505165006 54 305 0.0 0.0 0.00 0.00 0.00 88 1016.3
20260505164508 54 305 0.0 1.0 0.00 0.00 0.00 89 1016.2
20260505164011 54 305 0.0 1.0 0.00 0.00 0.00 89 1016.2
20260505163505 54 305 0.0 1.0 0.00 0.00 0.00 89 1016.2
20260505163008 54 305 0.0 1.0 0.00 0.00 0.00 89 1016.2
20260505162507 54 305 0.0 0.0 0.00 0.00 0.00 89 1016.2
20260505162007 54 305 0.0 0.0 0.00 0.00 0.00 89 1016.1
20260505161510 53 305 0.0 1.0 0.00 0.00 0.00 89 1016.1
20260505161010 53 305 0.0 1.0 0.00 0.00 0.00 89 1016.1
20260505160507 53 305 0.0 0.0 0.00 0.00 0.00 89 1016.1
20260505153010 53 305 0.0 0.0 0.00 0.00 0.00 90 1016.0
20260505152507 53 305 0.0 1.0 0.00 0.00 0.00 90 1015.9
20260505152005 53 305 0.0 1.0 0.00 0.00 0.00 90 1015.9
20260505151007 53 305 0.0 1.0 0.00 0.00 0.00 90 1015.8
20260505150507 53 305 0.0 1.0 0.00 0.00 0.00 90 1015.7
20260505140507 52 305 0.0 1.0 0.00 0.00 0.00 91 1015.2
20260505125007 51 305 0.0 1.0 0.00 0.00 0.00 90 1014.4
20260505124535 51 305 0.0 0.0 0.00 0.00 0.00 90 1014.3
20260505124011 51 305 0.0 1.0 0.00 0.00 0.00 90 1014.3
20260505123026 51 305 0.0 1.0 0.00 0.00 0.00 90 1014.2
20260505122511 51 305 0.0 1.0 0.00 0.00 0.00 90 1014.3
20260505122012 51 305 0.0 1.0 0.00 0.00 0.00 90 1014.2
20260505121526 51 305 0.0 1.0 0.00 0.00 0.00 90 1014.2
20260505120504 51 305 0.0 1.0 0.00 0.00 0.00 90 1014.2
20260505120034 51 305 0.0 1.0 0.00 0.00 0.00 90 1014.1
20260505115508 51 305 0.0 1.0 0.00 0.00 0.00 90 1014.1
20260505115006 51 305 0.0 1.0 0.00 0.00 0.00 89 1014.1
20260505114525 51 305 0.0 1.0 0.00 0.00 0.00 89 1014.0
20260505114008 51 305 0.0 1.0 0.00 0.00 0.00 89 1014.0
20260505113507 51 305 0.0 1.0 0.00 0.00 0.00 89 1014.0
20260505113025 51 305 0.0 1.0 0.00 0.00 0.00 89 1014.0
20260505112509 51 305 0.0 1.0 0.00 0.00 0.00 89 1014.0
20260505112006 51 305 0.0 1.0 0.00 0.00 0.00 89 1013.9
20260505111524 51 305 0.0 1.0 0.00 0.00 0.00 89 1013.8
20260505110507 51 305 0.0 1.0 0.00 0.00 0.00 89 1013.8
20260505102008 51 305 0.0 0.0 0.00 0.00 0.00 88 1013.4
20260505101010 51 305 0.0 0.0 0.00 0.00 0.00 88 1013.4
20260505100507 51 305 0.0 0.0 0.00 0.00 0.00 88 1013.4
20260505100028 51 305 0.0 0.0 0.00 0.00 0.00 88 1013.4
20260505095507 51 305 0.0 0.0 0.00 0.00 0.00 87 1013.4
20260505095006 51 305 0.0 0.0 0.00 0.00 0.00 87 1013.4
20260505094530 51 305 0.0 0.0 0.00 0.00 0.00 87 1013.4
20260505094009 51 305 0.0 0.0 0.00 0.00 0.00 87 1013.4
20260505092509 51 305 0.0 1.0 0.00 0.00 0.00 86 1013.4
20260505091525 52 305 0.0 0.0 0.00 0.00 0.00 86 1013.3
20260505091008 52 305 0.0 0.0 0.00 0.00 0.00 86 1013.2
20260505090509 52 305 0.0 0.0 0.00 0.00 0.00 86 1013.2
20260505090027 52 305 0.0 0.0 0.00 0.00 0.00 86 1013.1
20260505085509 52 305 0.0 0.0 0.00 0.00 0.00 86 1013.0
20260505085010 52 305 0.0 0.0 0.00 0.00 0.00 86 1013.0
20260505084541 52 305 0.0 0.0 0.00 0.00 0.00 85 1012.9
20260505084011 52 305 0.0 0.0 0.00 0.00 0.00 85 1012.8
20260505083511 52 305 0.0 0.0 0.00 0.00 0.00 84 1012.7
20260505083027 52 305 0.0 0.0 0.00 0.00 0.00 84 1012.8
20260505082507 52 305 0.0 0.0 0.00 0.00 0.00 84 1012.6
20260505082011 53 305 0.0 0.0 0.00 0.00 0.00 84 1012.7
20260505081527 53 305 0.0 0.0 0.00 0.00 0.00 84 1012.7
20260505081010 53 305 0.0 0.0 0.00 0.00 0.00 83 1012.7
20260505080510 53 305 0.0 0.0 0.00 0.00 0.00 83 1012.7
20260505080028 53 305 0.0 0.0 0.00 0.00 0.00 83 1012.6
20260505075509 53 305 0.0 0.0 0.00 0.00 0.00 82 1012.6
20260505075008 53 305 0.0 0.0 0.00 0.00 0.00 82 1012.6
20260505074528 53 305 0.0 0.0 0.00 0.00 0.00 82 1012.6
20260505074003 54 305 0.0 1.0 0.00 0.00 0.00 82 1012.5
20260505073504 54 305 0.0 1.0 0.00 0.00 0.00 82 1012.5
20260505073004 54 305 0.0 1.0 0.00 0.00 0.00 81 1012.5
20260505072503 54 305 0.0 1.0 0.00 0.00 0.00 81 1012.4
20260505072005 54 305 0.0 1.0 0.00 0.00 0.00 81 1012.3
20260505070503 55 305 0.0 1.0 0.00 0.00 0.00 80 1012.2
20260505065504 55 305 0.0 0.0 0.00 0.00 0.00 79 1012.1
20260505065003 55 305 0.0 1.0 0.00 0.00 0.00 79 1012.1
20260505064504 55 305 0.0 1.0 0.00 0.00 0.00 79 1012.0
20260505064009 55 305 0.0 1.0 0.00 0.00 0.00 78 1012.0
20260505063503 56 305 0.0 1.0 0.00 0.00 0.00 78 1012.0
20260505063003 56 305 0.0 1.0 0.00 0.00 0.00 78 1011.9
20260505062503 56 305 0.0 1.0 0.00 0.00 0.00 78 1011.9
20260505062003 56 305 0.0 1.0 0.00 0.00 0.00 78 1011.9
20260505061510 56 305 0.0 0.0 0.00 0.00 0.00 77 1011.9
20260505061003 56 305 0.0 0.0 0.00 0.00 0.00 77 1011.7
20260505060505 56 305 0.0 0.0 0.00 0.00 0.00 77 1011.7
20260505055503 57 305 0.0 0.0 0.00 0.00 0.00 76 1011.6
20260505055003 57 305 0.0 1.0 0.00 0.00 0.00 76 1011.5
20260505054002 57 305 0.0 1.0 0.00 0.00 0.00 76 1011.3
20260505053503 57 305 0.0 1.0 0.00 0.00 0.00 76 1011.3
20260505053006 57 305 0.0 0.0 0.00 0.00 0.00 75 1011.2
20260505052503 57 305 0.0 1.0 0.00 0.00 0.00 75 1011.1
20260505052004 58 305 0.0 1.0 0.00 0.00 0.00 74 1011.1
20260505051514 58 305 0.0 0.0 0.00 0.00 0.00 74 1011.1
20260505051004 58 305 0.0 1.0 0.00 0.00 0.00 74 1011.0
20260505050506 58 305 0.0 1.0 0.00 0.00 0.00 74 1011.0
20260505041508 60 305 0.0 1.0 0.00 0.00 0.00 71 1010.7
20260505041004 60 305 0.0 1.0 0.00 0.00 0.00 71 1010.6
20260505040505 60 305 0.0 1.0 0.00 0.00 0.00 70 1010.6
20260505040009 60 305 0.0 1.0 0.00 0.00 0.00 69 1010.5
20260505035506 60 305 0.0 0.0 0.00 0.00 0.00 69 1010.4
20260505035003 60 305 0.0 0.0 0.00 0.00 0.00 68 1010.4
20260505034514 61 305 0.0 0.0 0.00 0.00 0.00 68 1010.3
20260505034003 61 305 0.0 0.0 0.00 0.00 0.00 67 1010.2
20260505032502 62 305 0.0 0.0 0.00 0.00 0.00 65 1009.9
20260505032003 62 305 0.0 0.0 0.00 0.00 0.00 65 1009.9
20260505031003 63 305 0.0 1.0 0.00 0.00 0.00 64 1009.7
20260505030503 63 305 0.0 1.0 0.00 0.00 0.00 63 1009.7
20260505030012 63 305 0.0 1.0 0.00 0.00 0.00 63 1009.6
20260505025503 64 305 0.0 1.0 0.00 0.00 0.00 63 1009.6
20260505025005 64 305 0.0 0.0 0.00 0.00 0.00 62 1009.6
20260505024512 64 305 0.0 0.0 0.00 0.00 0.00 62 1009.6